Wind_Speed
53 54 54 55 56 57 58 59 59 60 60 60 60 60 59 58 57 56 54 52 50 48 46 43 40 37 34 31 30 28 27 25 24 24 24 24 25 27 30 33 36 38 41 42 44 45 48 49 51 53 55 57 58 60 61 63 64 65 66 67 67 68 69 69 70 71 71 72 73 74 75 75 76 76 77 77 77 78 78 78 78 79 79 80 80 81
53 53 54 54 55 56 57 58 58 59 59 59 59 58 58 56 55 53 52 50 49 47 44 42 39 36 33 31 29 28 27 26 26 26 27 28 30 32 34 37 39 40 41 42 43 45 47 49 51 53 55 57 58 60 61 63 64 65 66 67 68 69 70 70 71 72 73 73 73 74 75 76 77 78 78 79 79 79 80 80 80 80 81 81 82 83
53 53 53 54 55 56 57 58 58 58 58 58 58 57 56 55 54 52 50 49 47 45 43 41 38 35 32 29 27 27 26 27 27 28 29 31 33 35 37 39 41 42 43 44 45 46 48 49 51 53 54 56 58 60 61 63 64 66 67 68 69 70 70 71 72 73 73 74 74 75 75 76 77 78 78 79 80 81 81 82 82 82 83 83 84 84
52 53 53 54 54 55 56 57 57 58 58 57 57 56 55 54 53 51 49 47 45 43 42 40 37 35 32 29 27 25 25 25 26 28 29 31 33 35 37 39 40 42 43 44 46 47 48 49 50 52 53 55 57 58 60 62 63 65 66 67 68 69 70 71 72 73 74 75 76 76 77 77 78 78 79 79 80 81 82 83 84 84 85 85 86 86
53 53 53 54 54 55 55 56 57 57 57 57 56 55 54 53 52 50 49 46 44 42 40 39 36 34 32 29 26 24 23 23 24 25 27 29 31 33 34 36 38 40 42 43 44 46 47 48 49 50 52 53 54 56 58 59 61 62 64 65 66 67 69 70 71 73 74 75 76 77 78 79 80 80 81 81 82 82 83 84 85 86 87 87 88 88
53 53 53 54 54 55 55 56 56 57 57 57 56 54 53 52 51 50 48 46 44 42 40 38 36 34 32 30 28 25 23 22 22 23 24 25 27 29 31 33 35 36 38 40 41 43 44 45 47 48 49 51 52 53 55 56 57 59 60 61 63 64 66 67 69 71 72 74 76 77 79 80 81 82 82 83 83 84 84 85 85 86 87 88 89 89
53 53 53 54 54 55 55 55 56 56 56 56 56 55 53 52 50 49 48 46 45 43 40 38 36 34 33 31 29 27 25 24 23 22 22 23 24 26 27 29 30 32 34 35 37 38 40 41 43 45 46 48 49 51 52 53 54 55 57 58 60 61 63 64 66 68 70 72 74 75 77 78 80 81 82 82 83 83 84 84 84 85 86 87 88 89
53 53 54 54 54 55 55 55 55 55 56 56 56 55 54 52 50 49 48 47 45 44 42 40 38 36 34 32 31 29 28 26 25 24 24 23 24 24 25 26 27 29 30 31 33 34 36 37 39 41 42 44 46 47 48 50 51 53 54 56 57 59 61 62 64 66 67 69 71 72 73 75 76 77 78 79 79 80 80 81 82 82 83 84 85 86
54 54 54 54 55 55 55 55 55 55 55 55 55 54 54 53 52 50 49 47 46 45 43 42 40 38 36 34 33 31 30 29 28 27 27 26 26 26 27 27 28 28 29 30 31 32 33 34 36 37 39 40 41 43 44 46 48 49 51 53 54 56 58 60 62 63 65 66 68 69 70 71 72 72 73 74 75 75 76 77 77 78 79 80 80 81
54 54 54 55 55 55 55 56 56 55 55 55 54 54 53 53 52 51 50 49 48 46 45 44 42 41 39 37 36 34 33 32 31 31 30 30 30 30 30 30 30 31 31 32 32 33 34 35 36 37 38 38 39 41 42 43 45 46 48 49 51 53 55 56 58 60 61 63 64 65 66 67 68 69 70 70 71 72 73 73 74 75 76 76 77 78
54 54 55 55 55 55 55 56 56 56 55 55 54 53 52 52 51 51 51 50 49 48 47 46 44 43 42 41 40 38 37 36 35 34 34 33 33 33 33 33 34 34 34 35 35 36 37 37 38 39 39 40 41 42 42 44 45 46 47 48 50 51 52 54 55 56 58 59 61 62 63 64 65 66 67 68 69 70 71 71 72 73 74 75 75 76
54 54 55 55 55 56 56 56 56 56 55 55 54 54 53 52 51 51 50 50 50 49 48 47 46 45 44 43 43 42 41 40 39 38 38 37 37 37 37 37 37 37 38 38 39 40 40 41 41 42 43 43 44 45 45 46 47 48 49 50 51 52 53 54 55 56 57 58 59 60 62 63 64 65 66 67 68 69 70 71 72 72 73 74 75 76
54 54 55 55 55 56 56 56 56 56 56 55 55 54 53 52 51 51 50 50 49 49 48 48 47 47 46 45 44 43 43 42 42 42 41 41 40 40 40 40 40 41 41 42 42 43 43 44 44 45 46 46 47 48 48 49 50 51 52 53 54 55 56 57 57 58 59 60 61 62 63 63 64 65 66 67 68 69 70 71 72 73 73 74 75 76
54 54 55 55 55 56 56 56 56 56 56 55 55 54 54 53 52 51 51 50 49 49 48 48 47 47 46 46 45 44 44 44 44 43 43 43 42 42 42 43 43 43 44 44 45 45 46 46 47 48 48 49 49 50 51 52 53 54 55 56 57 58 58 59 60 61 61 62 63 64 65 65 66 67 68 69 69 70 71 72 73 74 74 75 76 76
54 54 55 55 55 56 56 56 56 56 55 55 55 54 54 53 52 52 51 51 50 49 49 48 48 47 47 46 46 45 45 45 45 45 44 44 44 43 44 44 45 46 46 46 47 48 48 49 49 50 50 51 52 53 54 55 56 56 58 58 59 60 61 61 62 63 64 65 65 66 67 68 68 69 70 70 71 72 73 74 74 75 76 77 77 78
54 55 55 55 56 56 56 56 56 56 55 55 55 54 54 54 53 52 52 51 51 50 50 49 49 48 48 47 46 46 46 46 46 46 46 45 45 45 44 45 46 47 48 48 49 50 50 51 51 52 53 53 54 55 56 57 58 59 60 61 61 62 63 64 64 65 66 67 67 68 69 70 70 71 72 73 73 74 75 75 76 77 78 78 79 80
55 55 56 56 56 56 56 56 56 56 55 55 55 55 54 54 54 53 52 52 51 51 50 50 49 49 49 48 48 47 47 47 48 48 47 47 47 46 46 47 48 49 49 50 50 51 52 52 53 54 54 55 56 57 58 59 60 61 62 63 63 64 65 66 67 67 68 69 70 70 71 72 72 73 74 74 75 76 77 77 78 79 79 80 81 81
56 56 56 57 57 57 56 56 56 56 56 56 56 55 55 54 54 53 53 53 52 52 51 51 50 50 50 49 49 48 48 48 49 49 49 49 48 48 47 48 49 50 51 51 52 53 53 54 55 55 56 57 58 59 60 61 62 63 64 64 65 66 67 68 68 69 70 71 71 72 73 73 74 75 75 76 77 78 78 79 80 80 81 82 82 83
56 56 57 57 57 57 57 57 56 56 56 56 56 56 56 55 55 54 54 53 52 52 52 51 51 50 50 50 50 49 49 49 50 50 51 50 50 49 49 49 50 52 52 53 54 54 55 56 56 57 58 59 60 61 62 63 64 65 66 66 67 68 69 70 71 71 72 73 74 74 75 76 76 77 77 78 79 80 80 81 82 82 83 83 84 85
57 57 57 57 57 57 57 57 57 57 57 57 57 56 56 56 55 55 54 53 53 53 52 52 51 51 51 50 50 50 49 50 50 51 51 51 51 51 50 51 52 53 54 55 55 56 56 57 58 59 60 61 62 63 64 65 66 67 68 69 70 71 71 72 73 74 75 76 76 77 78 78 79 79 80 80 81 82 82 83 83 84 85 85 86 86
57 57 57 57 57 57 57 57 57 57 57 57 57 57 57 56 56 55 54 54 53 53 53 52 52 51 51 51 50 50 50 50 51 51 52 52 52 52 51 52 53 54 55 56 56 57 58 59 60 61 62 63 64 65 66 67 68 69 70 71 72 73 74 75 76 77 78 78 79 80 80 81 81 82 83 83 84 84 84 85 85 86 86 87 87 88
57 57 57 57 57 57 57 57 57 57 57 57 57 57 57 56 56 56 55 54 54 53 53 52 52 51 51 51 51 50 50 50 51 52 53 53 53 53 53 53 54 55 56 57 58 58 59 60 61 63 64 65 66 67 68 69 70 71 72 73 75 76 77 78 79 79 80 81 82 82 83 84 84 85 85 86 86 86 87 87 87 88 88 88 89 89
57 57 57 57 57 57 57 57 57 57 57 57 57 57 57 56 56 56 55 54 54 54 53 53 52 52 51 51 51 50 50 51 51 52 53 54 54 54 54 54 55 57 58 58 59 60 61 62 63 65 66 67 68 69 70 71 72 73 74 75 77 78 79 80 80 81 82 83 84 84 85 85 86 86 87 87 87 88 88 88 89 89 89 89 90 90
56 56 56 57 57 57 57 57 57 57 57 57 57 57 56 56 56 55 55 54 54 53 53 53 52 52 51 51 51 51 51 51 52 53 54 55 56 56 56 56 57 58 59 60 61 62 63 64 65 67 68 69 70 71 72 73 74 75 76 77 78 79 80 81 82 83 83 84 85 85 86 86 86 87 87 87 88 88 88 89 89 89 89 90 90 90
56 56 56 56 56 56 57 57 57 57 57 57 57 57 56 56 55 55 54 54 53 53 53 53 52 52 52 52 51 51 52 52 52 54 55 56 57 58 58 58 59 60 62 62 63 64 65 66 68 69 70 71 72 73 74 75 75 76 77 78 79 80 81 82 83 83 84 84 85 85 86 86 86 86 87 87 87 87 87 88 88 88 88 88 89 89
56 56 56 56 56 56 56 56 56 56 56 56 56 56 56 55 55 55 54 53 53 53 53 53 53 53 53 53 53 53 53 53 54 55 56 58 59 60 60 60 61 62 64 65 65 66 67 69 70 71 72 73 74 74 75 76 77 78 78 79 80 81 81 82 83 83 84 84 84 85 85 85 85 85 85 85 85 85 85 86 86 86 86 86 86 87
55 55 56 56 56 56 56 55 55 55 55 55 55 55 55 55 55 54 54 53 53 53 53 53 54 54 54 54 54 55 55 55 56 57 58 59 61 62 63 63 63 65 66 67 68 68 69 71 72 73 73 74 75 76 77 77 78 79 79 80 81 81 82 82 82 82 83 83 83 83 83 83 83 83 83 83 83 83 83 83 83 83 84 84 84 84
55 55 55 55 55 55 54 54 54 54 54 54 54 54 54 54 54 54 54 54 54 54 54 54 55 55 56 56 56 57 57 57 58 59 60 62 63 64 65 65 66 67 68 69 70 71 71 72 73 74 75 76 77 77 78 78 79 80 80 80 80 81 81 81 81 81 81 81 81 81 81 80 80 80 80 80 81 81 81 81 81 81 82 82 82 82
54 54 54 54 53 53 53 53 53 53 53 53 53 53 53 54 54 54 55 55 55 55 56 56 57 57 58 59 59 59 59 60 60 61 62 64 65 66 67 68 68 69 70 71 72 73 73 74 75 76 76 77 78 78 79 79 80 80 80 80 80 80 79 79 79 79 79 78 78 78 78 78 78 78 78 78 79 79 79 79 79 79 80 80 80 81
53 53 53 53 52 53 53 53 53 53 53 53 53 53 54 54 54 55 56 56 57 57 58 58 59 59 60 61 62 62 62 62 63 63 64 66 68 69 69 70 71 71 72 74 75 76 76 76 76 77 77 78 79 79 79 79 79 79 79 79 79 78 77 77 77 76 76 76 76 76 76 76 76 76 77 77 77 77 77 77 78 78 78 78 79 79
52 52 52 52 53 53 53 53 53 54 54 54 54 54 55 55 56 56 57 58 58 59 60 60 61 61 62 63 64 64 65 65 65 65 66 68 70 71 71 72 73 74 74 75 77 78 79 79 78 78 78 79 79 79 79 79 79 78 78 78 77 76 75 75 74 74 74 74 74 74 74 74 75 75 75 75 76 76 76 76 76 76 76 76 77 77
52 52 53 53 53 53 54 54 54 55 55 55 56 56 56 57 57 58 59 59 60 61 61 62 63 63 64 64 65 66 67 67 67 68 68 70 71 73 73 74 75 76 76 76 78 79 81 81 80 79 79 79 79 79 79 78 78 77 76 76 75 74 73 73 72 72 72 72 72 73 73 73 73 74 74 74 74 74 74 74 74 74 74 74 74 74
53 53 53 54 54 54 55 55 56 56 57 57 57 58 58 59 59 60 60 61 61 62 63 63 64 65 65 66 67 67 68 69 69 70 70 72 73 75 75 76 77 78 78 78 79 80 81 82 82 81 80 79 79 78 77 77 76 75 74 74 73 72 71 71 71 71 71 71 71 72 72 72 72 72 72 72 72 72 72 72 71 71 71 71 71 71
54 54 54 55 55 55 56 56 57 57 58 58 59 59 60 60 61 61 62 62 63 63 64 65 65 66 67 68 69 69 70 70 71 72 72 74 75 77 77 78 79 80 80 81 81 81 81 82 82 81 80 79 78 76 76 75 74 73 72 72 71 70 70 69 69 70 70 70 71 71 71 71 71 71 71 70 70 70 69 69 69 68 68 68 68 68
54 54 55 55 56 56 57 57 58 58 59 59 60 60 61 62 62 63 63 64 64 65 65 66 67 67 68 70 71 72 72 73 73 74 75 76 77 78 79 80 80 81 81 82 82 82 82 82 81 81 80 79 77 75 74 73 72 71 71 70 69 69 69 69 69 69 69 70 70 70 69 69 69 69 68 68 68 67 67 67 66 66 66 66 66 66
54 55 55 56 56 57 57 58 58 59 59 60 61 61 62 63 63 64 65 65 66 66 67 68 68 69 70 71 72 73 74 75 75 76 77 78 79 80 81 81 81 82 82 82 82 82 82 81 81 80 79 78 77 75 73 71 70 69 69 68 68 68 68 68 68 68 69 69 69 68 68 67 67 66 66 65 65 65 65 64 64 64 64 64 63 63
55 55 56 56 57 57 58 59 59 60 61 61 62 62 63 64 65 65 66 67 67 68 69 69 70 71 72 73 74 75 76 77 77 78 79 79 80 81 82 83 82 82 82 82 82 81 81 80 80 79 77 76 75 74 72 70 69 68 67 67 67 67 67 67 67 67 67 67 67 66 65 65 64 64 63 63 62 62 62 62 62 62 62 62 61 61
56 57 57 58 58 59 59 60 60 61 62 62 63 64 65 65 66 67 67 68 69 70 70 71 72 73 74 75 75 76 77 78 79 80 80 81 82 82 83 83 83 82 81 81 81 80 79 79 78 77 76 75 74 73 72 70 69 68 67 67 66 66 66 66 66 66 65 65 65 64 63 62 62 61 61 61 60 60 60 60 60 60 60 60 59 59
58 58 59 59 60 60 61 61 62 63 63 64 65 65 66 67 67 68 69 69 70 71 72 73 74 75 76 76 77 78 79 80 81 81 82 82 83 83 83 83 83 82 81 79 79 78 77 77 76 76 75 74 73 72 71 70 69 68 68 67 66 65 65 65 64 64 63 63 62 61 60 60 59 59 59 58 58 58 58 58 58 58 58 58 58 57
59 60 60 61 61 62 62 63 64 64 65 65 66 67 68 68 69 70 70 71 72 73 74 75 76 77 77 78 79 80 81 81 82 83 83 83 83 83 83 83 82 81 80 78 77 76 76 75 75 74 73 73 72 72 71 70 69 68 68 68 67 66 64 63 62 62 61 60 59 59 58 57 57 57 57 56 56 56 56 56 56 56 56 56 56 55
61 61 62 62 63 63 64 65 65 66 66 67 68 68 69 70 70 71 72 73 73 74 75 76 77 78 79 80 80 81 82 82 83 83 83 84 83 83 82 82 81 80 78 77 76 75 74 74 73 73 72 72 71 71 70 70 69 68 68 68 67 66 64 62 61 60 59 58 57 56 56 55 55 55 54 54 54 54 54 54 54 54 54 54 54 54
62 63 64 64 65 65 66 66 67 67 68 68 69 70 70 71 72 73 73 74 75 76 77 78 79 80 81 81 82 82 82 83 83 83 83 83 83 82 81 80 79 78 76 76 75 74 73 72 72 72 71 71 71 71 71 70 69 68 68 68 67 65 64 61 60 58 57 56 55 54 54 53 53 53 52 52 52 52 52 52 52 52 52 52 52 52
64 65 65 66 66 67 67 68 68 69 69 70 70 71 72 72 73 74 75 76 77 78 79 80 81 81 82 83 83 83 83 83 83 83 83 82 82 81 80 78 77 76 75 74 74 73 72 71 71 70 70 70 70 70 70 70 69 69 68 67 66 65 64 61 59 57 56 55 54 53 52 52 51 51 51 50 50 50 50 50 50 50 50 50 50 50
66 66 67 68 68 69 69 69 70 70 71 71 72 73 73 74 75 76 77 78 79 79 80 81 82 83 83 84 84 84 83 83 82 82 81 81 80 79 78 77 76 74 73 73 73 72 72 71 70 70 69 69 70 70 70 70 69 68 67 66 65 64 63 61 59 57 55 54 53 52 51 51 50 50 49 48 48 48 48 48 48 48 48 48 48 48
67 68 69 69 70 70 70 71 71 72 72 73 73 74 75 75 76 77 78 79 80 81 82 83 83 84 84 84 84 84 84 83 82 81 80 79 78 77 76 75 74 73 72 72 71 71 71 71 70 70 69 69 69 69 69 69 69 68 67 65 63 62 61 59 58 56 55 53 52 51 50 50 49 48 48 47 47 46 46 46 46 46 46 47 47 47
69 70 70 71 71 72 72 72 73 73 74 74 75 75 76 77 78 79 80 81 82 83 83 84 84 85 85 85 85 84 83 82 81 80 78 77 76 75 74 73 72 72 71 71 71 70 70 70 70 70 70 69 69 69 69 68 68 67 66 64 62 61 59 57 56 55 54 53 52 51 50 49 48 47 46 46 45 45 44 44 44 44 44 45 45 45
70 71 72 72 72 73 73 74 74 75 75 76 76 77 78 78 79 80 81 82 83 84 84 85 85 85 85 85 84 84 83 82 81 79 77 76 74 73 72 72 71 71 70 70 70 70 70 70 70 70 70 70 69 69 68 67 66 66 64 62 61 59 58 56 55 53 53 52 51 50 50 48 47 46 46 45 44 44 43 43 42 42 43 43 43 44
72 73 73 74 74 74 75 75 75 76 77 77 78 79 79 80 81 81 82 83 84 85 85 86 86 86 85 84 83 82 82 81 79 78 76 75 73 72 71 70 70 69 69 69 69 69 70 69 69 69 69 69 69 69 68 66 65 64 62 61 59 58 56 55 53 52 52 51 51 50 49 48 47 46 45 44 43 43 42 42 41 41 41 41 42 42
73 74 74 75 75 76 76 76 77 77 78 79 79 80 81 81 82 83 83 84 85 85 86 86 86 86 85 84 82 81 80 79 77 76 74 73 71 70 69 69 68 68 68 68 69 69 69 69 69 69 68 68 68 68 67 65 63 62 60 58 57 56 55 53 52 51 51 50 50 49 48 47 46 45 44 43 42 42 41 41 40 40 40 40 41 41
75 75 76 76 76 77 77 77 78 78 79 80 81 82 82 83 83 84 84 85 85 85 86 86 85 85 84 83 81 80 78 77 76 74 72 71 70 69 68 68 67 67 68 68 68 69 69 69 69 68 67 66 66 66 65 63 62 60 58 56 55 54 53 52 51 50 50 50 49 49 48 46 45 44 43 42 42 41 41 40 39 39 39 39 39 40
76 76 76 77 77 78 78 78 79 79 80 81 82 83 83 84 85 85 85 85 85 85 85 85 84 84 83 82 80 79 77 75 74 72 71 69 68 67 67 66 66 66 67 67 68 68 69 69 69 68 67 65 64 63 62 61 60 58 56 54 53 52 51 50 50 50 50 49 49 48 47 46 44 43 42 42 41 40 40 39 38 38 37 38 38 39
Wind_Direction
303 305 306 308 310 312 313 315 317 319 320 322 324 325 328 330 333 337 341 344 347 350 352 352 351 348 343 338 333 327 321 313 304 294 283 273 265 258 255 253 255 257 258 258 256 254 253 252 252 252 252 252 253 254 255 256 257 258 260 261 262 262 263 262 262 262 262 261 261 261 260 260 260 260 260 261 261 261 262 262 262 263 263 264 264 265
303 304 306 308 310 311 313 315 316 318 320 321 323 325 327 329 332 335 339 342 346 348 350 352 351 349 345 339 332 325 318 311 303 295 287 279 274 270 268 268 269 269 269 266 263 261 259 258 258 257 257 257 257 257 258 259 259 261 262 263 264 264 265 265 265 265 265 265 264 264 263 263 262 262 262 261 261 261 261 261 262 262 262 262 262 263
303 304 306 308 309 311 313 314 316 317 319 320 322 323 325 327 330 333 336 339 342 345 348 349 350 349 346 341 333 324 316 309 302 296 290 285 281 279 278 277 277 276 274 271 269 267 266 265 264 263 262 261 261 261 261 262 262 263 263 264 265 265 266 266 266 267 267 267 267 267 266 266 266 265 264 264 263 263 262 262 262 262 262 262 262 262
303 304 306 307 309 311 312 314 315 316 318 319 320 322 324 326 328 330 333 336 338 341 343 345 347 347 346 342 336 328 318 310 303 297 292 288 285 283 282 281 279 278 276 274 273 272 271 271 270 269 268 267 266 266 265 265 265 265 266 266 266 266 267 267 267 267 267 267 268 268 268 267 267 267 266 266 265 264 264 264 263 263 263 263 263 263
302 304 306 307 309 310 311 313 314 315 317 318 319 321 322 324 326 327 329 332 334 336 338 340 341 342 342 341 337 331 323 314 306 299 294 290 287 284 283 281 279 278 276 275 275 274 274 273 273 272 271 271 270 269 268 268 267 267 267 267 267 267 267 267 266 266 266 267 267 267 267 267 267 267 267 266 266 265 265 264 264 264 263 263 263 263
302 304 305 307 308 310 311 312 313 315 316 317 318 319 320 322 323 325 326 328 330 331 333 334 335 336 336 336 334 331 326 319 311 304 298 292 288 285 283 280 279 277 276 275 274 274 273 273 272 272 271 270 270 269 268 268 267 266 266 266 266 265 265 265 265 265 265 265 265 265 265 266 266 266 266 266 266 266 265 265 264 264 264 264 263 263
302 304 305 307 308 309 310 311 313 314 315 316 317 318 319 320 321 322 323 324 325 327 327 328 329 330 330 329 329 327 324 320 315 309 302 297 292 288 284 282 279 277 276 274 273 272 271 270 270 269 269 268 268 267 267 266 265 265 264 264 264 264 263 263 263 263 263 263 263 264 264 264 264 265 265 265 265 265 265 265 265 265 264 264 264 264
302 303 305 306 307 308 310 311 312 313 314 315 316 317 317 318 319 320 321 321 322 323 323 323 323 324 324 323 323 321 319 317 314 310 305 301 296 292 288 285 282 280 278 276 274 272 271 269 268 268 267 267 266 266 266 266 265 265 265 264 264 264 263 263 263 263 263 264 264 264 265 265 265 265 265 265 266 266 266 266 266 265 265 265 265 265
302 303 305 306 307 308 309 311 312 313 314 314 315 316 316 317 318 318 319 319 319 320 320 320 319 319 319 318 317 316 315 313 311 308 305 302 299 295 292 289 286 284 282 279 277 276 274 272 271 270 269 268 268 268 267 267 267 266 266 266 266 265 265 265 265 265 265 266 266 266 266 266 267 267 267 267 267 267 267 266 266 266 266 266 266 265
302 303 304 306 307 308 309 310 311 312 313 313 313 314 315 316 317 317 317 317 317 317 317 317 317 316 315 315 314 313 312 310 308 306 304 302 299 297 295 292 290 288 286 284 283 281 280 278 277 276 274 273 273 272 271 270 270 269 268 268 267 267 267 266 266 266 266 266 267 267 267 267 267 267 267 267 267 267 267 267 267 267 266 266 266 266
302 303 304 305 307 308 309 310 311 311 312 312 312 312 313 314 315 316 316 316 316 316 316 315 315 314 314 313 312 311 310 309 307 305 304 302 300 298 297 295 293 292 290 289 287 285 284 283 282 280 279 278 277 277 276 275 274 273 272 271 270 270 269 269 268 268 268 268 267 267 267 267 267 267 267 267 267 267 267 267 267 267 267 266 266 266
301 303 304 305 306 307 309 309 310 310 311 311 311 311 312 312 313 314 314 314 314 314 314 314 313 313 312 312 311 310 309 308 307 306 304 303 301 300 299 297 296 294 293 291 290 288 287 286 284 284 283 282 281 280 279 278 277 276 275 275 274 273 272 272 271 271 270 270 269 269 269 269 268 268 268 268 268 268 267 267 267 267 267 266 266 266
301 302 303 305 306 307 308 308 309 309 309 309 310 310 311 311 312 312 312 312 312 312 312 312 311 311 310 310 309 309 308 307 306 305 304 303 302 301 300 298 297 295 294 292 291 289 288 287 286 285 284 284 283 282 281 280 279 278 278 277 276 275 275 274 274 273 273 272 272 271 271 270 270 270 269 269 269 269 268 268 268 268 267 267 267 267
301 302 303 304 305 306 307 307 307 307 308 308 308 309 309 310 310 310 310 310 310 310 310 309 309 308 308 307 307 306 305 304 303 303 302 301 301 300 299 297 296 295 293 292 291 289 289 288 287 286 285 284 284 283 282 281 280 280 279 278 277 277 276 275 275 274 274 273 273 273 272 272 271 271 271 270 270 270 269 269 269 268 268 268 268 267
301 302 303 304 305 305 306 306 306 306 306 307 307 308 308 308 309 309 309 309 309 308 308 307 307 306 306 305 305 304 303 302 301 300 299 299 298 298 297 296 294 293 292 291 290 289 289 288 287 286 286 285 284 283 283 282 281 280 280 279 279 278 278 277 277 276 276 275 275 274 274 273 273 273 272 272 271 271 271 270 270 269 269 269 269 268
301 302 302 303 304 304 305 305 305 305 305 306 306 307 307 308 308 308 308 308 308 307 307 306 305 305 304 304 303 302 301 300 299 298 297 297 296 296 295 294 293 292 291 290 289 289 288 288 287 286 286 285 285 284 283 283 282 282 281 281 280 280 279 279 279 278 278 277 277 276 276 275 275 274 274 274 273 273 272 272 271 271 271 270 270 269
301 301 302 303 303 303 304 304 304 304 305 305 306 306 306 307 307 307 307 307 306 306 306 305 304 304 303 303 302 301 301 299 298 297 297 296 295 295 294 293 292 291 290 289 289 288 288 287 287 286 286 285 285 284 284 283 283 282 282 282 281 281 281 281 280 280 279 279 278 278 278 277 277 276 276 275 275 274 274 274 273 273 272 272 271 271
300 301 302 302 303 303 303 304 304 304 305 305 305 306 306 306 306 306 306 306 305 305 305 304 303 303 302 302 301 301 300 299 298 297 297 296 295 295 294 293 292 291 290 290 289 289 288 288 287 287 287 286 286 285 285 284 284 283 283 283 283 282 282 282 281 281 281 280 280 279 279 278 278 278 277 277 276 276 275 275 274 274 273 273 272 272
300 301 301 302 302 303 303 304 304 305 305 305 305 305 305 305 305 305 305 305 305 304 304 303 303 302 302 301 301 300 299 298 298 297 296 296 295 295 294 293 292 291 291 290 290 290 289 289 288 288 288 287 287 286 286 285 285 285 285 284 284 284 284 283 283 282 282 282 281 281 280 280 279 279 278 278 277 276 276 275 275 274 274 273 273 272
300 300 301 302 302 303 303 304 304 305 305 305 305 305 305 305 305 305 304 304 304 303 303 302 302 301 301 300 300 299 299 298 297 297 296 295 295 295 294 293 293 292 291 291 291 290 290 290 289 289 288 288 288 287 287 287 286 286 286 286 286 285 285 285 285 284 284 283 283 282 282 281 281 280 279 279 278 277 277 276 276 275 274 274 273 272
300 300 301 302 302 303 303 304 304 304 304 304 304 304 304 304 304 304 304 304 303 303 302 302 301 301 301 300 300 299 299 298 297 296 296 295 295 294 294 293 293 292 291 291 291 291 291 290 290 289 289 289 288 288 288 288 288 287 287 287 287 287 286 286 286 285 285 285 284 284 283 283 282 281 281 280 279 279 278 277 277 276 275 275 274 273
300 301 301 302 303 303 303 303 304 304 304 304 304 304 304 304 304 304 304 303 303 303 302 302 301 301 300 300 299 299 298 298 297 296 296 295 294 294 294 293 293 292 292 291 291 291 291 290 290 290 289 289 289 289 288 288 288 288 288 288 288 287 287 287 286 286 285 285 284 284 283 283 282 282 281 281 280 279 279 278 277 277 276 276 275 274
300 301 302 302 302 303 303 303 303 303 303 303 303 303 303 303 303 303 303 303 303 302 302 301 301 300 300 299 299 298 298 297 297 296 295 295 294 294 294 293 293 292 292 292 292 291 291 290 290 290 290 289 289 289 289 289 289 288 288 288 288 287 287 286 286 286 285 285 284 284 283 282 282 281 281 280 280 279 279 278 278 277 277 276 275 275
301 301 302 302 302 302 303 303 303 303 303 303 303 303 303 303 303 303 303 303 303 302 302 302 301 301 300 300 299 298 298 298 297 296 296 295 295 295 294 294 293 293 292 292 292 292 291 291 290 290 290 290 289 289 289 289 289 289 288 288 288 287 287 286 286 285 285 284 284 283 283 282 281 281 280 280 280 279 278 278 278 277 277 276 276 275
302 302 302 302 302 303 303 303 303 303 304 304 304 304 304 304 303 303 303 303 303 303 302 302 302 301 301 300 300 299 298 298 297 297 296 295 295 295 295 294 294 293 293 293 292 292 292 291 291 291 290 290 290 290 290 290 289 289 289 288 288 287 287 286 286 285 285 284 283 283 282 282 281 281 280 280 279 279 278 278 277 277 276 276 276 275
302 302 302 303 303 303 304 304 304 304 304 305 305 305 305 304 304 304 304 304 304 303 303 303 302 302 301 301 300 299 299 298 298 297 297 296 296 295 295 295 294 294 293 293 293 292 292 292 291 291 291 291 291 291 291 290 290 290 289 289 288 288 287 286 286 285 285 284 284 283 282 282 281 281 280 280 279 279 278 278 277 277 277 276 276 275
303 303 303 304 304 304 305 305 305 305 305 306 306 305 305 305 305 305 305 305 305 304 304 303 303 302 302 301 300 300 299 299 298 298 297 297 296 296 296 295 295 294 294 294 293 293 293 293 292 292 292 292 292 292 292 291 291 290 290 289 289 288 287 287 286 286 285 285 284 283 283 282 282 281 281 280 280 279 279 278 278 277 277 276 276 276
304 305 305 305 306 306 306 306 306 306 306 306 306 306 306 306 306 306 306 306 305 305 304 304 303 303 302 301 301 300 300 299 299 298 298 297 297 296 296 296 296 295 295 294 294 294 294 294 293 293 293 293 293 293 293 292 292 291 291 290 289 289 288 287 287 286 286 285 285 284 283 283 282 282 281 280 280 279 279 278 278 278 277 277 276 276
306 306 306 307 307 307 307 307 307 307 307 307 307 307 307 307 307 306 306 306 306 305 304 304 303 303 302 302 301 301 300 300 299 299 299 298 297 297 297 297 296 296 296 296 295 295 295 295 295 295 295 295 294 294 294 293 293 292 291 291 290 289 289 288 288 287 286 286 285 284 284 283 283 282 282 281 281 280 280 279 279 278 278 277 277 276
307 307 308 308 308 309 309 308 308 308 308 308 308 307 307 307 307 306 306 306 305 305 304 304 303 303 302 302 301 301 301 300 300 300 299 299 298 298 298 298 297 297 297 297 297 297 296 296 296 296 296 296 295 295 294 294 293 293 292 291 291 290 289 289 288 288 287 286 286 285 284 284 283 283 282 282 281 281 280 280 279 279 278 278 277 277
308 309 309 309 309 309 309 309 309 308 308 308 308 307 307 307 306 306 306 305 305 304 304 304 303 303 303 302 302 302 301 301 301 300 300 300 299 299 299 299 298 298 298 298 298 298 298 298 298 297 297 297 296 296 295 295 294 293 293 292 291 291 290 290 289 288 288 287 286 286 285 285 284 283 283 283 282 282 281 280 280 279 278 278 277 277
309 309 310 310 309 309 309 309 309 309 308 308 308 307 307 307 306 306 305 305 304 304 304 303 303 303 303 302 302 302 302 301 301 301 301 300 300 300 300 299 299 299 299 299 299 299 299 299 299 299 298 298 297 296 296 295 294 294 293 293 292 291 291 290 290 289 288 288 287 286 286 285 285 284 284 283 283 282 282 281 280 279 279 278 277 276
310 310 310 310 310 309 309 309 309 309 308 308 308 307 307 306 306 305 305 305 304 304 304 304 304 303 303 303 302 302 302 302 302 302 301 301 301 300 300 300 300 300 301 301 300 300 300 300 300 300 299 298 298 297 296 296 295 294 294 293 293 292 292 291 290 290 289 289 288 287 287 286 286 285 285 284 284 283 282 281 280 279 279 278 277 277
310 310 310 310 310 309 309 309 309 309 308 308 308 307 307 306 306 305 305 305 305 304 304 304 304 304 304 303 303 303 302 302 302 302 302 302 301 301 301 301 301 302 302 302 302 302 301 301 301 300 300 299 298 297 296 296 295 295 294 294 294 293 293 292 291 291 290 289 289 288 288 288 287 287 286 285 284 283 282 281 280 279 279 278 277 277
310 310 310 310 310 310 309 309 309 309 308 308 308 307 307 306 306 306 306 305 305 305 305 305 305 304 304 304 304 303 303 303 303 303 303 303 302 302 302 302 302 303 303 303 303 303 303 302 302 301 300 299 298 297 297 296 296 295 295 295 294 294 293 293 292 292 291 290 290 289 289 289 288 287 286 286 285 283 282 281 280 279 279 278 277 276
311 311 311 310 310 310 310 310 309 309 309 308 308 307 307 307 307 306 306 306 306 306 306 305 305 305 304 304 304 304 304 304 304 304 303 303 303 303 303 303 303 303 304 304 304 304 303 303 302 301 300 300 299 298 297 297 296 296 296 295 295 294 294 293 293 292 292 291 291 290 290 289 289 288 287 286 284 283 282 281 280 279 278 278 277 276
311 311 311 311 311 311 310 310 310 309 309 309 308 308 308 308 307 307 307 307 307 307 306 306 306 305 305 305 304 304 304 304 304 304 304 304 304 304 304 304 304 304 304 305 305 304 304 303 303 302 301 300 299 299 298 298 297 297 296 296 296 295 295 294 294 293 293 292 292 291 291 290 289 288 287 285 284 283 282 281 280 279 278 277 277 276
312 312 312 311 311 311 311 310 310 310 310 309 309 309 309 309 308 308 308 308 308 307 307 306 306 306 305 305 305 305 305 305 305 305 305 305 305 305 305 305 305 305 305 305 305 305 304 304 303 302 301 300 300 299 299 299 298 298 297 297 296 296 295 295 294 294 293 293 292 292 291 290 289 288 286 285 284 282 281 280 279 279 278 277 276 276
312 312 312 312 312 311 311 311 311 310 310 310 310 310 309 309 309 309 309 308 308 307 307 307 306 306 306 306 305 305 305 305 305 305 305 305 305 305 305 305 305 306 306 306 306 305 304 304 303 302 302 301 301 300 300 300 299 299 299 298 297 296 296 295 295 295 294 293 293 292 291 290 289 287 286 285 283 282 281 280 279 278 277 277 276 275
312 312 312 312 312 312 311 311 311 311 311 311 310 310 310 310 309 309 309 308 308 307 307 307 306 306 306 306 306 306 306 306 306 306 306 306 306 306 306 306 306 307 307 306 306 305 304 304 303 302 302 302 301 301 301 301 300 300 300 299 299 298 297 296 296 295 295 294 293 292 291 290 288 287 286 284 283 282 281 280 279 278 277 276 276 275
312 312 312 312 312 311 311 311 311 311 311 311 310 310 310 310 309 309 309 308 308 307 307 307 307 306 306 306 306 306 306 306 306 306 306 306 306 306 307 307 307 307 307 307 306 305 304 304 303 303 302 302 302 302 301 301 301 301 301 300 300 299 298 298 297 297 296 295 294 292 291 290 288 287 285 284 283 282 280 279 278 277 276 276 275 274
312 312 312 312 311 311 311 311 311 311 311 311 310 310 310 310 309 309 309 308 308 308 307 307 307 307 307 307 307 307 307 307 307 307 307 307 307 307 307 307 308 308 308 307 306 305 304 304 303 303 303 303 302 302 302 302 302 302 301 301 300 300 299 299 298 297 297 295 294 293 291 290 288 286 285 284 282 281 280 279 278 277 276 275 274 274
312 311 311 311 311 311 311 311 311 311 311 310 310 310 310 309 309 309 309 308 308 308 308 308 307 307 307 307 307 307 307 307 307 307 307 307 308 308 308 308 308 308 308 307 306 305 305 304 304 303 303 303 303 303 303 303 303 302 302 301 301 301 300 300 299 298 297 296 295 293 291 290 288 287 285 284 282 281 279 278 277 276 275 275 274 273
311 311 311 311 311 311 311 311 311 310 310 310 310 310 309 309 309 309 309 308 308 308 308 308 308 308 308 308 308 308 308 308 308 308 308 308 308 309 309 309 309 308 308 307 306 306 305 305 304 304 304 304 304 303 303 303 303 303 302 302 302 302 301 301 300 300 298 297 295 294 292 290 288 287 285 284 282 280 279 278 276 276 275 274 273 273
311 311 311 311 311 311 311 310 310 310 310 310 310 310 309 309 309 309 309 309 309 309 309 309 309 309 308 308 308 308 308 308 309 309 309 309 309 309 309 309 309 309 308 307 306 306 305 305 305 305 305 304 304 304 304 304 303 303 303 303 302 302 301 301 301 300 299 297 296 294 292 290 289 287 285 283 282 280 278 277 276 275 274 273 273 272
310 310 310 310 310 310 310 310 310 310 310 310 310 309 309 309 309 309 309 309 309 309 309 309 309 309 309 309 309 309 309 309 309 309 310 310 310 310 310 310 309 309 308 307 306 306 306 306 305 305 305 305 305 304 304 304 304 303 303 303 303 302 302 301 301 300 299 297 296 294 292 290 289 287 286 284 282 280 278 277 276 274 273 272 272 271
310 310 310 310 310 310 310 310 310 310 310 310 310 310 309 310 310 310 310 310 310 310 310 310 310 310 310 310 310 310 310 310 310 310 310 310 310 310 310 310 309 308 308 307 307 306 306 306 306 306 306 306 305 305 305 304 304 304 304 304 303 303 302 302 301 300 299 297 296 294 292 291 289 288 286 284 282 280 279 277 275 274 273 272 271 270
309 309 309 310 310 310 310 310 310 310 310 310 310 310 310 310 310 310 310 310 310 310 310 310 310 310 310 310 310 310 310 310 310 311 311 311 311 310 310 309 309 308 308 307 307 307 306 306 306 306 306 306 306 305 305 305 304 304 304 304 304 303 303 302 301 300 299 297 295 294 292 291 290 289 287 285 283 281 280 278 276 274 273 271 270 269
309 309 309 309 309 309 309 310 310 310 310 310 310 310 310 310 310 310 310 310 310 310 310 310 310 310 310 310 310 310 310 311 311 311 311 311 311 310 310 309 309 308 308 307 307 307 307 306 306 306 306 306 306 305 305 305 304 304 305 304 304 304 303 302 301 300 298 296 295 294 292 292 291 290 288 287 285 283 281 279 277 275 273 272 270 269
308 309 309 309 309 309 309 309 310 310 310 310 310 310 310 310 310 310 310 310 311 311 311 311 311 311 311 311 311 311 311 311 311 311 311 311 310 310 309 309 309 308 308 308 307 307 307 307 306 306 306 306 306 305 305 305 305 305 305 305 305 304 303 302 301 299 298 296 295 294 293 292 292 291 290 288 287 285 283 281 279 277 274 272 271 269
308 308 309 309 309 309 309 309 309 310 310 310 310 310 310 310 310 310 310 311 311 311 311 311 311 311 311 311 311 311 311 311 311 311 311 310 310 310 309 309 309 308 308 308 308 308 308 307 307 307 306 306 306 305 305 305 305 305 305 305 305 304 304 302 301 299 297 296 295 294 294 293 293 292 291 290 289 287 285 283 281 278 276 274 272 270
Height
10485 10483 10481 10478 10476 10473 10469 10467 10464 10462 10459 10456 10453 10449 10445 10441 10438 10434 10430 10426 10422 10418 10414 10412 10409 10408 10406 10405 10405 10405 10406 10406 10408 10409 10409 10411 10413 10414 10416 10417 10418 10419 10419 10421 10422 10423 10424 10425 10426 10427 10428 10429 10429 10430 10431 10431 10431 10432 10433 10433 10433 10434 10434 10435 10436 10436 10436 10437 10438 10438 10438 10438 10438 10438 10438 10439 10439 10439 10440 10441 10441 10441 10442 10442 10443 10443
10481 10479 10478 10476 10473 10470 10467 10464 10462 10460 10457 10454 10451 10448 10444 10441 10438 10434 10431 10428 10424 10421 10418 10414 10412 10410 10409 10408 10408 10408 10408 10408 10409 10410 10411 10412 10413 10414 10414 10415 10416 10417 10418 10419 10421 10422 10423 10424 10424 10425 10426 10427 10427 10428 10428 10428 10429 10429 10429 10429 10429 10429 10429 10430 10430 10431 10431 10431 10432 10432 10432 10432 10432 10433 10433 10433 10433 10433 10434 10434 10434 10434 10435 10435 10436 10436
10478 10476 10474 10472 10470 10468 10464 10461 10459 10458 10455 10453 10450 10447 10443 10440 10437 10434 10431 10428 10426 10423 10419 10417 10414 10413 10411 10410 10409 10409 10409 10410 10410 10411 10412 10413 10413 10414 10414 10414 10415 10416 10417 10418 10419 10420 10421 10422 10423 10423 10423 10424 10424 10424 10425 10425 10425 10425 10425 10425 10425 10425 10425 10424 10424 10425 10425 10425 10425 10426 10426 10426 10426 10426 10426 10426 10427 10427 10427 10427 10428 10428 10428 10428 10428 10428
10474 10473 10471 10469 10467 10464 10462 10459 10457 10454 10453 10451 10448 10445 10443 10439 10436 10434 10431 10429 10426 10424 10421 10419 10417 10415 10413 10412 10411 10411 10411 10411 10411 10411 10412 10412 10413 10413 10413 10414 10414 10414 10415 10416 10416 10417 10418 10418 10419 10419 10419 10420 10421 10421 10421 10421 10421 10421 10421 10420 10420 10419 10419 10419 10419 10419 10419 10419 10419 10419 10419 10419 10419 10419 10419 10419 10419 10420 10420 10420 10420 10421 10421 10421 10421 10421
10471 10469 10467 10466 10463 10461 10459 10457 10454 10452 10450 10448 10446 10444 10441 10438 10435 10433 10431 10429 10427 10424 10423 10421 10419 10417 10415 10414 10413 10412 10411 10411 10411 10411 10411 10411 10411 10411 10412 10412 10412 10413 10413 10413 10413 10413 10414 10414 10414 10414 10414 10415 10415 10415 10415 10415 10415 10415 10414 10414 10414 10414 10414 10413 10413 10413 10413 10413 10413 10412 10412 10411 10411 10411 10411 10411 10412 10412 10412 10413 10413 10413 10413 10413 10413 10413
10467 10466 10464 10462 10460 10458 10456 10454 10452 10449 10447 10444 10443 10441 10439 10437 10434 10432 10429 10428 10426 10424 10423 10421 10419 10418 10416 10415 10414 10413 10412 10411 10411 10410 10410 10410 10409 10409 10409 10409 10409 10409 10409 10409 10409 10409 10409 10409 10409 10409 10409 10409 10409 10409 10409 10409 10409 10408 10408 10408 10408 10408 10407 10407 10407 10406 10406 10406 10406 10405 10405 10404 10404 10404 10404 10404 10404 10404 10404 10404 10404 10404 10404 10404 10404 10405
10463 10462 10461 10459 10457 10455 10453 10451 10449 10447 10444 10442 10439 10438 10436 10435 10433 10431 10428 10426 10425 10424 10423 10421 10419 10418 10417 10415 10414 10413 10412 10411 10410 10409 10409 10409 10408 10408 10408 10408 10407 10407 10406 10406 10406 10406 10406 10406 10405 10405 10404 10404 10404 10403 10403 10403 10402 10402 10401 10401 10401 10401 10400 10400 10399 10399 10399 10399 10398 10398 10398 10398 10397 10397 10396 10396 10396 10396 10396 10396 10396 10396 10396 10396 10396 10396
10459 10458 10457 10455 10453 10451 10449 10448 10446 10444 10442 10439 10436 10434 10433 10431 10430 10428 10426 10425 10423 10422 10421 10419 10419 10418 10416 10415 10414 10412 10411 10410 10409 10408 10408 10408 10407 10406 10406 10406 10405 10404 10404 10404 10403 10403 10402 10402 10401 10401 10400 10399 10399 10398 10398 10397 10397 10396 10396 10395 10394 10394 10394 10393 10393 10393 10392 10392 10391 10391 10391 10390 10390 10389 10389 10389 10389 10388 10388 10388 10388 10388 10388 10388 10388 10388
10456 10454 10453 10451 10449 10448 10446 10444 10443 10441 10439 10437 10434 10432 10429 10428 10426 10424 10423 10422 10421 10419 10418 10417 10416 10415 10414 10413 10413 10411 10410 10409 10408 10407 10406 10406 10405 10404 10404 10403 10403 10403 10402 10401 10400 10399 10399 10398 10398 10396 10396 10395 10394 10394 10393 10393 10392 10391 10391 10390 10389 10389 10388 10388 10387 10386 10386 10386 10385 10384 10384 10384 10383 10383 10383 10382 10381 10381 10381 10380 10380 10380 10380 10379 10379 10379
10453 10451 10449 10447 10446 10444 10443 10440 10438 10437 10436 10434 10432 10430 10428 10425 10423 10421 10419 10418 10417 10416 10415 10414 10413 10411 10411 10410 10409 10409 10408 10406 10406 10404 10404 10403 10403 10402 10401 10401 10400 10399 10398 10398 10397 10396 10395 10394 10393 10393 10391 10391 10390 10389 10389 10388 10388 10387 10386 10385 10384 10384 10383 10383 10382 10381 10381 10380 10379 10379 10378 10378 10377 10376 10376 10375 10374 10374 10374 10373 10373 10373 10373 10372 10372 10372
10449 10447 10446 10443 10442 10440 10439 10437 10435 10434 10433 10431 10429 10427 10426 10423 10421 10418 10416 10414 10413 10412 10411 10410 10409 10408 10406 10406 10405 10404 10404 10403 10402 10401 10400 10399 10399 10398 10397 10396 10396 10394 10394 10393 10392 10391 10390 10389 10388 10388 10387 10386 10386 10385 10384 10384 10383 10382 10381 10380 10379 10379 10378 10377 10376 10376 10375 10374 10374 10373 10372 10371 10371 10370 10369 10369 10368 10368 10367 10366 10366 10366 10365 10364 10364 10364
10445 10443 10442 10440 10438 10436 10435 10433 10432 10431 10429 10428 10425 10423 10422 10421 10419 10417 10414 10412 10410 10409 10407 10406 10405 10404 10403 10401 10401 10399 10399 10398 10397 10396 10396 10394 10394 10393 10393 10391 10391 10389 10389 10388 10386 10386 10385 10384 10383 10383 10382 10381 10381 10380 10379 10378 10378 10376 10376 10374 10374 10373 10373 10372 10371 10370 10369 10369 10368 10367 10366 10366 10364 10364 10363 10363 10361 10361 10360 10359 10359 10358 10358 10358 10357 10357
10442 10441 10439 10437 10435 10434 10432 10430 10429 10427 10426 10424 10423 10420 10418 10417 10416 10414 10412 10410 10408 10406 10404 10403 10401 10400 10399 10398 10397 10396 10394 10393 10393 10391 10391 10390 10389 10388 10388 10386 10385 10384 10383 10383 10381 10381 10380 10379 10378 10378 10377 10376 10375 10374 10374 10373 10372 10371 10370 10369 10368 10368 10367 10366 10365 10364 10364 10363 10362 10361 10360 10359 10358 10358 10357 10356 10355 10354 10354 10353 10352 10351 10351 10350 10350 10349
10438 10437 10435 10434 10432 10431 10429 10428 10426 10424 10423 10421 10419 10418 10416 10414 10412 10411 10409 10407 10406 10404 10403 10401 10399 10398 10396 10395 10394 10393 10391 10390 10389 10388 10387 10386 10385 10384 10383 10382 10381 10379 10379 10378 10376 10376 10375 10374 10373 10373 10372 10371 10370 10369 10369 10368 10366 10366 10364 10364 10363 10362 10361 10360 10359 10358 10358 10356 10356 10354 10354 10353 10352 10351 10350 10349 10349 10348 10347 10346 10345 10344 10344 10343 10343 10343
10435 10433 10432 10430 10429 10428 10426 10424 10423 10421 10419 10418 10416 10414 10412 10410 10409 10407 10406 10404 10402 10401 10399 10398 10396 10395 10394 10393 10391 10390 10388 10387 10385 10384 10383 10383 10382 10381 10380 10378 10377 10376 10374 10373 10372 10371 10370 10369 10368 10368 10367 10366 10365 10364 10363 10362 10361 10359 10359 10358 10356 10356 10354 10354 10353 10352 10351 10350 10349 10348 10347 10346 10345 10344 10343 10343 10342 10341 10340 10339 10338 10338 10337 10336 10336 10335
10431 10430 10428 10426 10425 10424 10423 10421 10419 10418 10416 10414 10412 10411 10409 10406 10405 10403 10402 10400 10398 10397 10396 10394 10393 10391 10390 10389 10388 10387 10385 10383 10381 10380 10379 10379 10378 10378 10377 10375 10373 10371 10370 10369 10368 10366 10366 10364 10364 10363 10362 10361 10360 10359 10358 10356 10355 10354 10353 10351 10350 10349 10348 10347 10346 10345 10344 10343 10342 10341 10339 10339 10338 10337 10336 10335 10334 10333 10333 10331 10331 10330 10329 10328 10328 10328
10428 10426 10424 10423 10421 10419 10418 10417 10415 10413 10411 10410 10408 10406 10405 10403 10401 10399 10398 10396 10395 10393 10392 10390 10389 10387 10386 10384 10384 10383 10381 10379 10377 10376 10374 10374 10374 10374 10373 10371 10369 10366 10366 10364 10363 10362 10361 10359 10359 10358 10357 10356 10354 10353 10352 10350 10349 10348 10346 10345 10344 10343 10341 10340 10339 10338 10336 10336 10334 10333 10332 10331 10330 10329 10328 10328 10326 10325 10324 10323 10323 10322 10321 10320 10319 10319
10423 10422 10420 10419 10417 10416 10414 10413 10411 10409 10408 10406 10404 10402 10400 10399 10398 10396 10394 10393 10391 10389 10388 10386 10385 10383 10382 10380 10379 10378 10378 10375 10373 10370 10369 10369 10368 10369 10368 10366 10364 10362 10360 10359 10358 10358 10356 10354 10354 10353 10351 10350 10349 10347 10346 10344 10343 10341 10339 10338 10337 10336 10334 10333 10332 10331 10329 10328 10327 10326 10324 10323 10323 10321 10320 10319 10318 10317 10316 10315 10314 10313 10312 10311 10311 10310
10419 10418 10416 10414 10413 10411 10409 10408 10406 10404 10403 10401 10399 10397 10396 10394 10393 10391 10390 10388 10387 10385 10384 10382 10381 10379 10378 10376 10375 10374 10373 10371 10368 10366 10364 10363 10363 10363 10363 10361 10359 10357 10355 10354 10353 10352 10351 10349 10348 10347 10346 10344 10343 10341 10339 10338 10336 10334 10333 10332 10330 10329 10328 10326 10324 10323 10321 10320 10319 10318 10316 10316 10314 10313 10312 10311 10309 10309 10308 10306 10305 10304 10303 10303 10301 10301
10415 10413 10412 10411 10408 10406 10404 10403 10402 10400 10398 10396 10394 10393 10391 10389 10388 10387 10386 10384 10383 10381 10379 10378 10376 10374 10374 10372 10371 10369 10368 10366 10364 10361 10360 10359 10358 10358 10358 10356 10354 10351 10350 10349 10348 10347 10345 10344 10343 10341 10339 10338 10336 10334 10333 10331 10329 10328 10326 10324 10323 10321 10320 10318 10317 10315 10313 10312 10311 10309 10308 10307 10306 10304 10303 10302 10301 10299 10298 10297 10296 10295 10294 10293 10292 10291
10411 10409 10408 10406 10404 10403 10400 10399 10397 10396 10394 10392 10390 10388 10386 10385 10383 10382 10381 10379 10378 10376 10375 10373 10372 10370 10369 10368 10366 10364 10364 10362 10359 10357 10355 10354 10353 10353 10353 10351 10349 10347 10344 10343 10343 10341 10340 10338 10337 10335 10334 10332 10330 10328 10326 10324 10323 10321 10319 10318 10316 10314 10312 10310 10309 10307 10305 10303 10302 10300 10299 10298 10296 10295 10293 10292 10291 10289 10288 10287 10286 10285 10284 10283 10282 10281
10407 10405 10403 10403 10401 10398 10396 10394 10393 10391 10389 10388 10386 10384 10382 10381 10379 10377 10376 10374 10373 10371 10370 10368 10367 10366 10364 10363 10361 10360 10359 10358 10355 10353 10350 10348 10348 10348 10348 10347 10344 10342 10339 10338 10338 10336 10335 10333 10331 10329 10328 10326 10324 10322 10320 10318 10316 10314 10313 10311 10309 10307 10304 10303 10301 10299 10297 10295 10293 10291 10290 10288 10287 10286 10284 10283 10281 10279 10278 10277 10276 10274 10273 10272 10271 10270
10403 10401 10399 10398 10396 10394 10393 10390 10388 10387 10385 10383 10381 10379 10378 10376 10374 10373 10371 10369 10368 10366 10365 10364 10363 10361 10360 10359 10357 10356 10354 10353 10351 10348 10346 10343 10342 10341 10342 10341 10339 10336 10334 10333 10332 10331 10329 10328 10326 10323 10321 10319 10318 10316 10314 10312 10310 10308 10306 10304 10302 10299 10298 10295 10293 10291 10289 10287 10285 10283 10281 10279 10278 10276 10274 10273 10271 10270 10268 10267 10266 10264 10263 10262 10261 10259
10399 10397 10395 10393 10391 10390 10388 10386 10384 10383 10381 10379 10377 10375 10373 10371 10370 10368 10366 10365 10363 10362 10360 10358 10357 10356 10354 10354 10353 10351 10350 10349 10346 10344 10341 10338 10337 10336 10336 10335 10333 10331 10329 10328 10326 10325 10323 10321 10319 10318 10315 10313 10311 10309 10308 10306 10304 10302 10299 10298 10295 10293 10290 10288 10285 10283 10281 10278 10276 10274 10273 10271 10269 10267 10266 10264 10262 10261 10259 10257 10256 10254 10253 10251 10250 10249
10394 10393 10391 10389 10387 10385 10383 10381 10379 10378 10376 10374 10372 10370 10368 10366 10365 10363 10362 10361 10359 10357 10355 10353 10351 10350 10349 10348 10347 10346 10345 10344 10342 10339 10336 10333 10331 10330 10330 10329 10328 10325 10323 10321 10321 10319 10317 10314 10313 10311 10309 10306 10304 10303 10301 10299 10297 10294 10293 10290 10288 10285 10282 10279 10277 10274 10272 10269 10268 10265 10263 10261 10259 10258 10256 10254 10253 10251 10249 10248 10246 10244 10243 10242 10240 10239
10389 10388 10386 10384 10383 10381 10379 10377 10375 10373 10371 10369 10367 10365 10363 10361 10359 10358 10357 10355 10354 10352 10350 10348 10346 10345 10344 10343 10342 10341 10339 10339 10337 10334 10332 10329 10326 10324 10324 10323 10322 10319 10316 10315 10314 10313 10311 10308 10306 10304 10302 10299 10298 10296 10294 10292 10289 10287 10284 10282 10279 10276 10274 10271 10269 10266 10263 10261 10258 10256 10254 10252 10250 10248 10246 10245 10243 10241 10239 10238 10236 10235 10233 10232 10231 10229
10384 10383 10381 10379 10378 10376 10374 10373 10371 10369 10367 10364 10363 10361 10358 10356 10354 10353 10351 10350 10349 10347 10345 10343 10341 10340 10339 10338 10336 10335 10334 10333 10331 10329 10327 10324 10321 10318 10317 10317 10316 10313 10310 10308 10307 10306 10304 10301 10299 10297 10295 10293 10290 10288 10286 10284 10281 10279 10276 10273 10271 10268 10265 10263 10259 10257 10254 10251 10249 10247 10245 10243 10241 10239 10237 10235 10233 10232 10230 10229 10227 10226 10224 10223 10221 10219
10380 10378 10376 10375 10373 10371 10370 10368 10366 10364 10363 10361 10359 10356 10354 10352 10349 10348 10346 10345 10344 10342 10340 10339 10337 10335 10333 10332 10331 10329 10329 10328 10326 10324 10321 10318 10315 10312 10311 10310 10309 10307 10304 10301 10299 10298 10298 10294 10292 10289 10287 10285 10283 10280 10278 10275 10273 10270 10267 10264 10261 10259 10256 10253 10251 10248 10245 10243 10240 10238 10236 10234 10231 10229 10228 10226 10224 10223 10221 10219 10218 10216 10215 10213 10212 10210
10376 10374 10373 10371 10369 10367 10366 10364 10362 10360 10358 10356 10354 10353 10351 10349 10346 10344 10341 10340 10339 10337 10335 10333 10332 10330 10328 10326 10324 10324 10323 10321 10320 10318 10316 10312 10309 10306 10305 10303 10301 10299 10298 10294 10291 10290 10289 10288 10285 10283 10279 10277 10274 10272 10269 10266 10264 10261 10258 10255 10252 10249 10247 10244 10242 10239 10236 10234 10231 10229 10227 10224 10223 10221 10219 10217 10215 10213 10211 10210 10209 10207 10206 10204 10203 10201
10372 10370 10368 10367 10365 10363 10361 10359 10358 10356 10354 10353 10351 10349 10347 10345 10343 10340 10338 10336 10334 10333 10330 10328 10327 10325 10323 10321 10319 10317 10316 10315 10314 10313 10310 10306 10302 10299 10298 10296 10294 10293 10291 10287 10283 10280 10279 10278 10278 10275 10272 10269 10266 10263 10260 10258 10254 10251 10248 10246 10243 10241 10238 10236 10233 10230 10228 10225 10223 10221 10218 10216 10214 10212 10209 10208 10206 10204 10203 10201 10199 10198 10196 10195 10193 10192
10368 10366 10364 10363 10361 10359 10358 10356 10354 10352 10350 10348 10346 10344 10343 10341 10339 10336 10334 10332 10330 10328 10326 10323 10321 10320 10318 10316 10313 10311 10309 10308 10308 10306 10304 10299 10296 10293 10291 10289 10286 10284 10283 10281 10277 10272 10268 10267 10267 10266 10264 10260 10257 10254 10251 10249 10246 10243 10239 10236 10234 10232 10229 10227 10224 10222 10219 10217 10214 10212 10210 10208 10205 10203 10201 10199 10197 10196 10194 10192 10191 10189 10188 10186 10184 10183
10364 10363 10361 10359 10357 10355 10353 10351 10349 10348 10346 10344 10342 10340 10338 10336 10334 10332 10330 10328 10326 10324 10321 10319 10316 10314 10313 10311 10308 10306 10303 10301 10300 10299 10297 10293 10289 10286 10285 10283 10279 10276 10274 10273 10271 10266 10261 10258 10256 10255 10254 10252 10248 10244 10242 10239 10237 10234 10231 10228 10225 10223 10221 10219 10216 10213 10211 10208 10206 10204 10201 10199 10197 10195 10193 10191 10189 10187 10185 10183 10182 10181 10179 10177 10176 10174
10361 10359 10357 10355 10353 10351 10349 10347 10345 10343 10341 10339 10337 10335 10333 10331 10329 10328 10325 10323 10321 10319 10316 10314 10311 10309 10306 10304 10303 10300 10298 10296 10294 10292 10290 10286 10283 10279 10277 10275 10272 10269 10266 10264 10262 10259 10255 10251 10247 10244 10243 10242 10239 10236 10233 10231 10228 10225 10223 10219 10217 10214 10213 10211 10208 10205 10203 10200 10198 10196 10193 10191 10189 10186 10184 10182 10180 10178 10176 10174 10173 10172 10170 10169 10167 10166
10357 10355 10353 10351 10349 10347 10345 10343 10341 10338 10336 10334 10333 10331 10328 10326 10324 10322 10320 10318 10316 10314 10312 10309 10306 10303 10301 10298 10296 10293 10291 10289 10288 10286 10283 10280 10276 10273 10269 10268 10264 10261 10258 10255 10253 10249 10246 10243 10239 10236 10233 10231 10229 10228 10226 10223 10219 10217 10214 10212 10209 10206 10204 10203 10200 10197 10194 10192 10189 10187 10185 10183 10181 10179 10176 10174 10172 10169 10168 10166 10164 10163 10162 10161 10159 10158
10353 10351 10349 10347 10345 10343 10341 10339 10336 10334 10332 10330 10328 10326 10324 10321 10319 10317 10315 10313 10311 10308 10306 10304 10301 10298 10295 10292 10289 10286 10284 10283 10281 10279 10276 10273 10269 10266 10262 10259 10257 10254 10251 10247 10244 10241 10237 10233 10230 10228 10224 10220 10218 10218 10218 10215 10212 10209 10206 10204 10202 10199 10196 10194 10192 10189 10186 10184 10182 10179 10178 10175 10173 10171 10168 10166 10164 10161 10159 10158 10156 10155 10154 10153 10152 10151
10349 10347 10345 10343 10341 10339 10336 10334 10332 10330 10328 10325 10323 10321 10319 10316 10314 10312 10309 10307 10304 10302 10299 10297 10295 10293 10290 10287 10284 10281 10278 10275 10273 10271 10269 10266 10263 10259 10255 10251 10249 10248 10244 10239 10236 10233 10229 10224 10221 10218 10215 10212 10209 10207 10207 10206 10205 10202 10199 10197 10194 10192 10189 10187 10184 10182 10179 10176 10174 10172 10170 10168 10166 10163 10161 10158 10156 10154 10152 10150 10149 10148 10146 10146 10144 10143
10344 10343 10341 10339 10336 10334 10332 10329 10328 10326 10323 10321 10318 10316 10314 10311 10309 10306 10304 10301 10299 10296 10293 10291 10288 10286 10283 10281 10278 10275 10271 10269 10266 10264 10261 10259 10256 10252 10248 10244 10241 10239 10237 10233 10228 10224 10221 10217 10213 10209 10206 10203 10201 10198 10196 10196 10196 10194 10192 10189 10187 10184 10182 10180 10178 10175 10172 10169 10167 10165 10163 10161 10158 10156 10153 10151 10149 10147 10145 10143 10142 10141 10139 10138 10138 10136
10340 10338 10336 10334 10332 10329 10327 10325 10323 10321 10318 10316 10313 10311 10308 10306 10303 10301 10298 10295 10293 10290 10288 10284 10282 10279 10276 10274 10271 10268 10265 10263 10259 10256 10254 10251 10248 10244 10241 10237 10234 10231 10229 10226 10222 10218 10213 10209 10205 10201 10197 10194 10192 10190 10188 10187 10186 10184 10183 10181 10179 10178 10175 10173 10171 10168 10166 10163 10161 10158 10156 10154 10151 10149 10146 10144 10142 10139 10138 10136 10135 10134 10133 10131 10131 10130
10335 10333 10331 10329 10327 10324 10322 10320 10318 10315 10313 10311 10308 10305 10303 10300 10298 10295 10293 10289 10287 10284 10281 10278 10276 10273 10270 10267 10264 10261 10259 10256 10253 10249 10246 10243 10240 10237 10234 10230 10226 10223 10221 10218 10214 10211 10206 10202 10198 10194 10190 10186 10184 10181 10180 10179 10178 10176 10174 10172 10171 10169 10168 10166 10164 10161 10159 10157 10154 10152 10149 10147 10144 10142 10139 10137 10135 10133 10131 10130 10129 10128 10126 10125 10124 10124
10331 10328 10326 10324 10322 10319 10318 10315 10313 10310 10308 10305 10303 10300 10297 10294 10292 10289 10286 10284 10281 10278 10275 10273 10269 10266 10264 10261 10258 10255 10252 10249 10246 10242 10239 10236 10233 10229 10226 10223 10219 10216 10213 10209 10206 10203 10199 10194 10191 10187 10184 10181 10177 10174 10172 10171 10169 10168 10166 10163 10161 10159 10159 10158 10156 10154 10153 10150 10148 10145 10143 10140 10138 10135 10133 10131 10129 10127 10125 10124 10123 10121 10120 10119 10118 10118
10326 10324 10321 10319 10317 10314 10313 10310 10308 10305 10303 10300 10297 10294 10291 10289 10286 10283 10280 10278 10275 10272 10269 10266 10263 10259 10257 10254 10252 10249 10246 10242 10239 10235 10232 10228 10225 10222 10219 10216 10212 10209 10205 10201 10198 10194 10191 10188 10184 10180 10177 10174 10171 10168 10165 10163 10162 10160 10158 10155 10153 10151 10150 10149 10148 10147 10145 10143 10141 10139 10136 10133 10131 10129 10126 10124 10123 10121 10119 10118 10116 10115 10114 10114 10113 10112
10321 10319 10316 10314 10312 10309 10307 10304 10302 10299 10297 10294 10291 10289 10286 10283 10280 10278 10274 10271 10268 10266 10263 10259 10256 10253 10249 10246 10244 10242 10239 10236 10233 10229 10225 10221 10218 10214 10211 10208 10205 10202 10198 10194 10190 10187 10184 10181 10177 10173 10170 10167 10164 10161 10158 10156 10154 10153 10151 10148 10145 10143 10141 10141 10141 10139 10138 10136 10134 10132 10129 10127 10124 10123 10120 10118 10117 10115 10114 10112 10111 10109 10109 10108 10107 10106
10316 10314 10312 10309 10307 10304 10302 10299 10297 10294 10291 10289 10286 10283 10281 10278 10275 10272 10268 10265 10262 10259 10256 10253 10250 10246 10243 10239 10236 10234 10232 10229 10226 10223 10218 10214 10211 10208 10204 10201 10198 10194 10191 10187 10183 10179 10176 10174 10171 10168 10164 10161 10158 10154 10151 10149 10147 10145 10143 10141 10139 10136 10133 10133 10133 10132 10130 10128 10126 10124 10123 10120 10118 10116 10114 10113 10111 10109 10108 10106 10105 10104 10103 10103 10102 10101
10312 10309 10307 10304 10302 10299 10296 10294 10291 10289 10286 10283 10280 10278 10274 10272 10269 10266 10263 10259 10256 10253 10250 10246 10243 10239 10236 10233 10229 10226 10224 10221 10219 10216 10212 10208 10204 10201 10198 10194 10190 10187 10184 10181 10176 10173 10168 10166 10163 10161 10158 10155 10152 10149 10146 10143 10140 10138 10136 10134 10133 10130 10128 10126 10124 10123 10122 10121 10119 10118 10116 10114 10111 10109 10108 10107 10105 10104 10103 10101 10100 10099 10098 10098 10096 10096
10307 10304 10302 10299 10296 10294 10291 10288 10286 10283 10280 10278 10275 10272 10269 10266 10263 10260 10256 10253 10249 10246 10243 10240 10237 10233 10229 10226 10223 10219 10216 10214 10211 10209 10206 10202 10199 10195 10191 10188 10184 10180 10176 10173 10170 10166 10163 10159 10156 10153 10151 10149 10146 10143 10140 10137 10134 10131 10129 10128 10126 10124 10122 10121 10119 10116 10115 10113 10112 10111 10109 10107 10105 10104 10102 10101 10099 10098 10097 10096 10095 10094 10093 10093 10092 10091
10302 10299 10296 10294 10291 10288 10286 10283 10280 10278 10274 10272 10269 10266 10263 10260 10257 10254 10251 10247 10243 10239 10236 10233 10230 10226 10223 10219 10216 10213 10209 10206 10203 10201 10199 10196 10192 10189 10185 10182 10178 10174 10170 10166 10163 10159 10157 10154 10150 10147 10144 10142 10139 10137 10134 10131 10128 10125 10123 10121 10119 10118 10116 10114 10113 10111 10109 10106 10105 10103 10102 10101 10099 10098 10096 10095 10094 10093 10092 10091 10090 10089 10089 10088 10087 10086
10296 10294 10291 10288 10286 10283 10280 10278 10274 10272 10269 10266 10263 10260 10258 10254 10251 10248 10244 10241 10238 10233 10229 10226 10223 10220 10216 10213 10209 10206 10203 10199 10196 10194 10191 10189 10186 10183 10179 10176 10172 10168 10164 10161 10157 10153 10150 10148 10144 10141 10139 10136 10133 10129 10128 10125 10123 10119 10117 10115 10114 10112 10109 10108 10106 10104 10103 10100 10098 10097 10095 10094 10093 10092 10091 10089 10088 10088 10087 10086 10086 10085 10084 10083 10083 10082
10291 10288 10286 10283 10280 10277 10274 10272 10269 10266 10263 10260 10257 10254 10251 10249 10245 10242 10238 10234 10231 10227 10223 10219 10216 10213 10209 10206 10203 10200 10197 10193 10190 10188 10185 10183 10179 10176 10173 10170 10166 10163 10159 10155 10151 10148 10144 10141 10139 10136 10133 10130 10127 10124 10121 10119 10116 10114 10112 10110 10108 10106 10104 10102 10101 10099 10096 10094 10093 10091 10089 10088 10087 10086 10085 10084 10083 10083 10082 10081 10081 10081 10080 10079 10078 10078
10286 10283 10280 10277 10274 10271 10269 10266 10263 10260 10257 10254 10251 10248 10244 10242 10239 10236 10232 10228 10224 10221 10217 10213 10209 10206 10203 10199 10196 10194 10191 10188 10184 10182 10179 10176 10174 10171 10168 10164 10161 10157 10153 10149 10146 10143 10139 10136 10133 10131 10128 10125 10122 10118 10115 10113 10111 10109 10108 10106 10103 10101 10099 10097 10095 10093 10091 10088 10086 10085 10084 10083 10082 10081 10080 10079 10078 10078 10077 10077 10076 10076 10076 10075 10074 10074
10281 10278 10275 10272 10269 10266 10263 10260 10258 10254 10251 10248 10245 10242 10238 10236 10233 10229 10226 10223 10219 10214 10211 10208 10204 10200 10196 10193 10190 10187 10184 10181 10178 10176 10173 10171 10168 10165 10162 10159 10156 10152 10148 10144 10141 10137 10133 10129 10126 10124 10123 10121 10118 10114 10110 10108 10106 10104 10103 10101 10099 10096 10094 10091 10089 10087 10085 10083 10081 10079 10079 10078 10077 10076 10076 10074 10073 10073 10072 10072 10072 10072 10072 10071 10071 10069
10275 10272 10269 10266 10263 10260 10258 10254 10251 10249 10246 10243 10239 10236 10233 10229 10226 10223 10219 10216 10213 10209 10204 10201 10198 10194 10190 10187 10183 10181 10178 10176 10173 10170 10167 10165 10163 10159 10156 10153 10151 10147 10143 10139 10136 10132 10128 10124 10120 10117 10116 10115 10113 10110 10106 10103 10101 10099 10098 10096 10094 10092 10089 10087 10084 10082 10079 10078 10076 10074 10074 10073 10073 10072 10071 10070 10069 10068 10068 10067 10067 10068 10068 10068 10067 10066